Weather History for KFLL - December, 2011

Change the Weather History Date:

Thursday, December 15, 2011

  Actual Average Record
Temperature  
Mean Temperature 75 °F 71 °F  
Max Temperature 78 °F 78 °F 87 °F (1963)
Min Temperature 72 °F 64 °F 33 °F (1962)
Degree Days  
Heating Degree Days 0 1  
Month to date heating degree days 0 10  
Since 1 July heating degree days 0 12  
Cooling Degree Days 10 7  
Month to date cooling degree days 141 118  
Year to date cooling degree days 4733 4631  
Growing Degree Days 25 (Base 50)    
Moisture  
Dew Point 59 °F    
Average Humidity 61    
Maximum Humidity 68    
Minimum Humidity 53    
Precipitation  
Precipitation T in 0.09 in 1.75 in (1958)
Month to date precipitation 1.32 1.29  
Year to date precipitation 40.61 61.01  
Snow  
Snow 0.00 in - - ()
Month to date snowfall 0.0  
Since 1 July snowfall 0.0  
Snow Depth 0.00 in    
Sea Level Pressure  
Sea Level Pressure 30.15 in    
Wind  
Wind Speed 14 mph (East)    
Max Wind Speed 21 mph    
Max Gust Speed 26 mph    
Visibility 10 miles    
Events      
T = Trace of Precipitation, MM = Missing Value Source: NWS Daily Summary

Daily Weather History Graph

Daily Weather History Graph

Search for Another Location

Airport or City:

Trip Planner

Search our weather history database for the weather conditions in past years. The results will help you decide how hot, cold, wet, or windy it might be!

Date:

Astronomy

Dec. 15, 2011 Rise Set
Actual Time 7:00 AM EST 5:31 PM EST
Civil Twilight 6:34 AM EST 5:56 PM EST
Nautical Twilight 6:06 AM EST 6:25 PM EST
Astronomical Twilight 5:37 AM EST 6:53 PM EST
Moon 10:30 PM EST (12/15) 10:37 AM EST (12/15)
Length of Visible Light 11h 21m
Length of Day
10h 31m
Waning Gibbous, 75% of the Moon is Illuminated
Dec 15
Waning Gibbous
Dec 17
Last Quarter
Dec 24
New
Jan 1
First Quarter
Jan 9
Full

Hourly Weather History & Observations

Time (EST) Temp. Dew Point Humidity Pressure Visibility Wind Dir Wind Speed Gust Speed Precip Events Conditions
12:53 AM 72.0 °F 57.9 °F 61% 30.18 in 10.0 mi East 16.1 mph - N/A   Mostly Cloudy
1:53 AM 72.0 °F 57.9 °F 61% 30.17 in 10.0 mi East 16.1 mph - N/A   Mostly Cloudy
2:53 AM 73.0 °F 59.0 °F 61% 30.15 in 10.0 mi East 13.8 mph 21.9 mph N/A   Overcast
3:53 AM 72.0 °F 59.0 °F 64% 30.15 in 10.0 mi East 12.7 mph - N/A   Overcast
4:53 AM 73.0 °F 55.0 °F 53% 30.15 in 10.0 mi East 13.8 mph - N/A   Mostly Cloudy
5:53 AM 72.0 °F 60.1 °F 66% 30.15 in 10.0 mi East 13.8 mph - 0.00 in   Overcast
6:53 AM 73.0 °F 60.1 °F 64% 30.16 in 10.0 mi East 16.1 mph 23.0 mph N/A   Overcast
7:53 AM 73.0 °F 60.1 °F 64% 30.18 in 10.0 mi East 15.0 mph - N/A   Overcast
8:53 AM 73.9 °F 59.0 °F 59% 30.18 in 10.0 mi East 12.7 mph - N/A   Mostly Cloudy
9:53 AM 75.9 °F 59.0 °F 56% 30.19 in 10.0 mi East 15.0 mph 24.2 mph N/A   Overcast
10:53 AM 78.1 °F 60.1 °F 54% 30.18 in 10.0 mi East 15.0 mph - N/A   Overcast
11:53 AM 75.0 °F 59.0 °F 57% 30.17 in 10.0 mi ENE 12.7 mph 21.9 mph N/A   Overcast
12:53 PM 77.0 °F 59.0 °F 54% 30.15 in 10.0 mi East 17.3 mph 23.0 mph N/A   Mostly Cloudy
1:53 PM 75.0 °F 59.0 °F 57% 30.13 in 10.0 mi ENE 11.5 mph - N/A   Overcast
2:53 PM 75.0 °F 59.0 °F 57% 30.12 in 10.0 mi ENE 15.0 mph - N/A   Mostly Cloudy
3:53 PM 73.9 °F 61.0 °F 64% 30.12 in 10.0 mi ENE 12.7 mph - N/A   Overcast
4:53 PM 73.9 °F 60.1 °F 62% 30.12 in 10.0 mi ENE 13.8 mph - N/A   Overcast
5:53 PM 73.9 °F 57.0 °F 55% 30.13 in 10.0 mi East 11.5 mph - N/A   Scattered Clouds
6:53 PM 73.9 °F 61.0 °F 64% 30.14 in 10.0 mi East 15.0 mph - N/A   Mostly Cloudy
7:53 PM 73.9 °F 61.0 °F 64% 30.14 in 10.0 mi ENE 15.0 mph - N/A   Overcast
8:53 PM 73.9 °F 59.0 °F 59% 30.14 in 10.0 mi East 12.7 mph - N/A   Mostly Cloudy
9:53 PM 73.9 °F 60.1 °F 62% 30.15 in 10.0 mi East 11.5 mph - N/A   Scattered Clouds
10:53 PM 73.9 °F 60.1 °F 62% 30.15 in 10.0 mi East 12.7 mph - N/A   Mostly Cloudy
11:53 PM 73.9 °F 62.1 °F 66% 30.15 in 10.0 mi East 9.2 mph - N/A   Overcast